Time,TemperatureF,DewpointF,PressureIn,WindDirection,WindDirectionDegrees,WindSpeedMPH,WindSpeedGustMPH,Humidity,HourlyPrecipIn,Conditions,Clouds,dailyrainin,SoftwareType,DateUTC
2013-02-14 00:00:00,42.1,31.2,29.81,West,262,1.0,3.0,65,0.00,,,0.00,Wunderground v.1.15,2013-02-14 06:00:00,
2013-02-14 00:05:00,42.1,31.2,29.81,WSW,239,2.0,4.0,65,0.00,,,0.00,Wunderground v.1.15,2013-02-14 06:05:00,
2013-02-14 00:10:00,41.9,31.0,29.81,NW,318,2.0,2.0,65,0.00,,,0.00,Wunderground v.1.15,2013-02-14 06:10:00,
2013-02-14 00:15:00,41.8,30.9,29.81,NNW,340,2.0,3.0,65,0.00,,,0.00,Wunderground v.1.15,2013-02-14 06:15:00,
2013-02-14 00:20:00,41.7,31.2,29.81,ESE,104,2.0,3.0,66,0.00,,,0.00,Wunderground v.1.15,2013-02-14 06:20:00,
2013-02-14 00:25:00,41.6,31.1,29.82,WNW,298,2.0,3.0,66,0.00,,,0.00,Wunderground v.1.15,2013-02-14 06:25:00,
2013-02-14 00:35:00,41.4,31.3,29.82,WSW,248,2.0,3.0,67,0.00,,,0.00,Wunderground v.1.15,2013-02-14 06:35:00,
2013-02-14 00:45:00,41.3,31.2,29.82,ENE,62,1.0,3.0,67,0.00,,,0.00,Wunderground v.1.15,2013-02-14 06:45:00,
2013-02-14 00:50:00,41.5,31.4,29.82,WNW,285,1.0,3.0,67,0.00,,,0.00,Wunderground v.1.15,2013-02-14 06:50:00,
2013-02-14 00:55:00,41.7,31.5,29.82,SW,214,1.0,3.0,67,0.00,,,0.00,Wunderground v.1.15,2013-02-14 06:55:00,
2013-02-14 01:00:00,41.8,31.6,29.83,ESE,107,1.0,1.0,67,0.00,,,0.00,Wunderground v.1.15,2013-02-14 07:00:00,
2013-02-14 01:05:00,41.8,31.6,29.83,WNW,300,1.0,3.0,67,0.00,,,0.00,Wunderground v.1.15,2013-02-14 07:05:00,
2013-02-14 01:10:00,42.1,31.6,29.83,SW,229,1.0,3.0,66,0.00,,,0.00,Wunderground v.1.15,2013-02-14 07:10:00,
2013-02-14 01:20:00,42.3,31.7,29.83,SE,134,1.0,3.0,66,0.00,,,0.00,Wunderground v.1.15,2013-02-14 07:20:00,
2013-02-14 01:25:00,42.4,31.8,29.84,SSE,163,1.0,3.0,66,0.00,,,0.00,Wunderground v.1.15,2013-02-14 07:25:00,
2013-02-14 01:30:00,42.4,31.8,29.83,South,181,1.0,3.0,66,0.00,,,0.00,Wunderground v.1.15,2013-02-14 07:30:00,
2013-02-14 01:35:00,42.4,31.8,29.83,ESE,119,1.0,3.0,66,0.00,,,0.00,Wunderground v.1.15,2013-02-14 07:35:00,
2013-02-14 01:40:00,42.3,31.7,29.84,ESE,113,1.0,3.0,66,0.00,,,0.00,Wunderground v.1.15,2013-02-14 07:40:00,
2013-02-14 01:45:00,42.3,31.7,29.84,WNW,295,1.0,3.0,66,0.00,,,0.00,Wunderground v.1.15,2013-02-14 07:45:00,
2013-02-14 01:50:00,42.1,31.9,29.84,SW,224,1.0,3.0,67,0.00,,,0.00,Wunderground v.1.15,2013-02-14 07:50:00,
2013-02-14 02:00:00,41.5,31.7,29.85,East,101,0.0,3.0,68,0.00,,,0.00,Wunderground v.1.15,2013-02-14 08:00:00,
2013-02-14 02:05:00,41.3,31.5,29.85,East,92,0.0,3.0,68,0.00,,,0.00,Wunderground v.1.15,2013-02-14 08:05:00,
2013-02-14 02:10:00,41.2,31.8,29.85,East,98,1.0,3.0,69,0.00,,,0.00,Wunderground v.1.15,2013-02-14 08:10:00,
2013-02-14 02:15:00,41.2,31.4,29.85,WSW,252,1.0,3.0,68,0.00,,,0.00,Wunderground v.1.15,2013-02-14 08:15:00,
2013-02-14 02:20:00,41.3,31.9,29.85,East,89,1.0,3.0,69,0.00,,,0.00,Wunderground v.1.15,2013-02-14 08:20:00,
2013-02-14 02:25:00,41.3,31.9,29.86,NNW,337,2.0,3.0,69,0.00,,,0.00,Wunderground v.1.15,2013-02-14 08:25:00,
2013-02-14 02:30:00,41.1,31.7,29.86,SSE,160,2.0,2.0,69,0.00,,,0.00,Wunderground v.1.15,2013-02-14 08:30:00,
2013-02-14 02:40:00,40.4,31.4,29.87,NW,313,1.0,3.0,70,0.00,,,0.00,Wunderground v.1.15,2013-02-14 08:40:00,
2013-02-14 02:45:00,40.0,31.4,29.87,SE,146,1.0,3.0,71,0.00,,,0.00,Wunderground v.1.15,2013-02-14 08:45:00,
2013-02-14 02:50:00,39.8,31.5,29.87,East,79,2.0,3.0,72,0.00,,,0.00,Wunderground v.1.15,2013-02-14 08:50:00,
2013-02-14 02:55:00,39.7,31.4,29.87,WNW,293,2.0,3.0,72,0.00,,,0.00,Wunderground v.1.15,2013-02-14 08:55:00,
2013-02-14 03:00:00,39.7,31.4,29.87,ESE,107,2.0,3.0,72,0.00,,,0.00,Wunderground v.1.15,2013-02-14 09:00:00,
2013-02-14 03:10:00,39.7,31.4,29.87,SE,133,2.0,2.0,72,0.00,,,0.00,Wunderground v.1.15,2013-02-14 09:10:00,
2013-02-14 03:15:00,39.5,31.2,29.87,South,176,2.0,3.0,72,0.00,,,0.00,Wunderground v.1.15,2013-02-14 09:15:00,
2013-02-14 03:20:00,39.3,31.4,29.87,ESE,123,2.0,3.0,73,0.00,,,0.00,Wunderground v.1.15,2013-02-14 09:20:00,